Back to catalog

FENGYUN 1C DEB

AliveSSO
NORAD 31742·DEBRIS·🇨🇳 China

Launched May 10, 1999 from Taiyuan Satellite Launch Center

Loading…

Next Passes (next 24 hours)

TLE

FreshSource: Space-Track

Epoch: Sep 13, 2026, 09:22 UTC

1 31742U 99025CER 26256.39072273  .00000908  00000-0  29019-3 0  9997
2 31742  98.8857 132.2634 0074210 235.4478 123.9691 14.40697287  5983

Track FENGYUN 1C DEB in real time with AllMySat

Download on the App Store